Watford City, ND

4:05 AM CDT on April 20, 2018 (GMT -0500)
Watford City

Weather History for KS25 - December, 2012

Change the Weather History Date:

Saturday, December 8, 2012

  Actual Average (KISN) Record (KISN)
Temperature  
Mean Temperature 10 °F -  
Max Temperature 19 °F 26 °F 52 °F (1925)
Min Temperature 0 °F 4 °F -31 °F (1927)
Degree Days  
Heating Degree Days 56    
Moisture  
Dew Point 8 °F    
Average Humidity 88    
Maximum Humidity 100    
Minimum Humidity 78    
Precipitation  
Precipitation 4.98 in - - ()
Sea Level Pressure  
Sea Level Pressure 29.87 in    
Wind  
Wind Speed 11 mph (NE)    
Max Wind Speed 18 mph    
Max Gust Speed 23 mph    
Visibility 5 miles    
Events Rain , Snow    
Averages and records for this station are not official NWS values.
T = Trace of Precipitation, MM = Missing Value Source: NWS Daily Summary

Daily Weather History Graph

Daily Weather History Graph

Search for Another Location

Airport or City:

Astronomy

Dec. 08, 2012 Rise Set
Actual Time 8:29 AM CST 5:00 PM CST
Civil Twilight 7:53 AM CST 5:36 PM CST
Nautical Twilight 7:14 AM CST 6:15 PM CST
Astronomical Twilight 6:36 AM CST 6:53 PM CST
Moon 2:37 AM CST (12/8) 1:48 PM CST (12/8)
Length of Visible Light 9h 42m
Length of Day
8h 31m
Waning Crescent, 28% of the Moon is Illuminated
Dec 8
Waning Crescent
Dec 13
New
Dec 19
First Quarter
Dec 28
Full
Jan 4
Last Quarter

Hourly Weather History & Observations

Time (CST) Temp. Windchill Dew Point Humidity Pressure Visibility Wind Dir Wind Speed Gust Speed Precip Events Conditions
12:15 AM 17.6 °F 8.2 °F 15.8 °F 93% 29.76 in 10.0 mi ESE 6.9 mph - N/A   Overcast
12:35 AM 15.8 °F 3.4 °F 14.0 °F 93% 29.75 in 10.0 mi ESE 10.4 mph - N/A   Mostly Cloudy
12:55 AM 15.8 °F 7.2 °F 15.8 °F 100% 29.75 in 10.0 mi ESE 5.8 mph - N/A   Mostly Cloudy
1:15 AM 17.6 °F 9.3 °F 15.8 °F 93% 29.75 in 10.0 mi SE 5.8 mph - N/A   Overcast
1:35 AM 17.6 °F 9.3 °F 15.8 °F 93% 29.74 in 10.0 mi East 5.8 mph - N/A   Overcast
1:55 AM 19.4 °F 14.3 °F 17.6 °F 93% 29.73 in 10.0 mi East 3.5 mph - N/A   Overcast
2:15 AM 19.4 °F - 17.6 °F 93% 29.73 in 10.0 mi Calm Calm - N/A   Overcast
2:35 AM 19.4 °F 11.5 °F 17.6 °F 93% 29.72 in 9.0 mi East 5.8 mph - N/A   Overcast
2:55 AM 19.4 °F 11.5 °F 17.6 °F 93% 29.72 in 9.0 mi East 5.8 mph - N/A   Overcast
3:15 AM 19.4 °F 12.8 °F 17.6 °F 93% 29.73 in 8.0 mi East 4.6 mph - N/A   Overcast
3:35 AM 19.4 °F 10.4 °F 17.6 °F 93% 29.73 in 7.0 mi East 6.9 mph - N/A   Overcast
3:55 AM 19.4 °F 9.5 °F 17.6 °F 93% 29.72 in 8.0 mi ESE 8.1 mph - N/A   Overcast
4:15 AM 19.4 °F 10.4 °F 17.6 °F 93% 29.72 in 7.0 mi East 6.9 mph - N/A   Overcast
4:35 AM 19.4 °F 8.6 °F 17.6 °F 93% 29.71 in 7.0 mi East 9.2 mph - N/A   Overcast
4:55 AM 17.6 °F 5.0 °F 17.6 °F 100% 29.71 in 8.0 mi East 11.5 mph - N/A   Overcast
5:15 AM 17.6 °F 4.3 °F 15.8 °F 93% 29.70 in 7.0 mi East 12.7 mph - N/A   Overcast
5:35 AM 17.6 °F 2.2 °F 15.8 °F 93% 29.70 in 8.0 mi East 17.3 mph - N/A   Overcast
5:55 AM 15.8 °F -0.6 °F 15.8 °F 100% 29.70 in 8.0 mi East 18.4 mph - N/A   Overcast
6:15 AM 15.8 °F 0.9 °F 14.0 °F 93% 29.70 in 8.0 mi East 15.0 mph - N/A   Overcast
6:35 AM 15.8 °F 4.2 °F 14.0 °F 93% 29.71 in 7.0 mi ENE 9.2 mph - N/A Snow Light Snow
6:55 AM 15.8 °F 4.2 °F 14.0 °F 93% 29.71 in 2.5 mi ENE 9.2 mph - 0.01 in Snow Light Snow
7:15 AM 15.8 °F 1.4 °F 14.0 °F 93% 29.71 in 2.0 mi ENE 13.8 mph - 0.01 in Snow Light Snow
7:35 AM 15.8 °F 2.1 °F 14.0 °F 93% 29.71 in 4.0 mi East 12.7 mph - 0.01 in Snow Light Snow
7:55 AM 15.8 °F 2.7 °F 14.0 °F 93% 29.71 in 1.5 mi East 11.5 mph - 0.05 in Snow Light Snow
8:15 AM 15.8 °F 3.4 °F 14.0 °F 93% 29.71 in 1.2 mi East 10.4 mph - 0.03 in Snow Light Snow
8:35 AM 14.0 °F -0.2 °F 12.2 °F 93% 29.72 in 0.8 mi East 12.7 mph - 0.09 in Snow Light Snow
8:55 AM 14.0 °F -2.5 °F 10.4 °F 86% 29.72 in 0.5 mi East 17.3 mph - 0.12 in Snow Snow
9:15 AM 14.0 °F -2.5 °F 10.4 °F 86% 29.73 in 0.5 mi East 17.3 mph 20.7 mph 0.04 in Snow Snow
9:35 AM 14.0 °F -2.0 °F 10.4 °F 86% 29.73 in 0.8 mi East 16.1 mph - 0.09 in Snow Light Snow
9:55 AM 14.0 °F -0.2 °F 10.4 °F 86% 29.74 in 0.8 mi East 12.7 mph - 0.14 in Snow Light Snow
10:15 AM 14.0 °F 1.2 °F 10.4 °F 86% 29.74 in 0.8 mi ENE 10.4 mph - 0.04 in Snow Light Snow
10:35 AM 14.0 °F -1.4 °F 10.4 °F 86% 29.75 in 0.5 mi NE 15.0 mph - 0.21 in Snow Snow
10:55 AM 12.2 °F -4.3 °F 8.6 °F 85% 29.76 in 0.5 mi NE 16.1 mph - 0.43 in Snow Snow
11:15 AM 12.2 °F -2.5 °F 8.6 °F 85% 29.76 in 0.5 mi NE 12.7 mph - 0.18 in Snow Snow
11:35 AM 14.0 °F -2.0 °F 8.6 °F 79% 29.77 in 0.5 mi NE 16.1 mph - 0.41 in Snow Snow
11:55 AM 14.0 °F 1.2 °F 10.4 °F 86% 29.77 in 0.5 mi NE 10.4 mph - 0.54 in Snow Snow
12:15 PM 14.0 °F -0.2 °F 10.4 °F 86% 29.78 in 0.2 mi ENE 12.7 mph - 0.16 in Snow Heavy Snow
12:35 PM 14.0 °F -0.2 °F 10.4 °F 86% 29.79 in 0.2 mi NE 12.7 mph - 0.39 in Snow Heavy Snow
12:55 PM 10.4 °F -7.2 °F 8.6 °F 92% 29.79 in 0.2 mi NE 17.3 mph 21.9 mph 0.93 in Snow Heavy Snow
1:15 PM 10.4 °F -4.8 °F 8.6 °F 92% 29.80 in 0.2 mi NE 12.7 mph - 0.22 in Snow Heavy Snow
1:35 PM 10.4 °F -7.7 °F 6.8 °F 85% 29.81 in 0.2 mi NE 18.4 mph - 0.54 in Snow Heavy Snow
1:55 PM 10.4 °F -4.8 °F 8.6 °F 92% 29.82 in 0.2 mi NE 12.7 mph 18.4 mph 0.95 in Snow Heavy Snow
2:35 PM 10.4 °F -6.6 °F 6.8 °F 85% 29.84 in 0.2 mi NNE 16.1 mph - 0.61 in Snow Heavy Snow
2:55 PM 10.4 °F -5.4 °F 6.8 °F 85% 29.86 in 0.5 mi NNE 13.8 mph - 0.88 in Snow Snow
3:15 PM 8.6 °F -8.9 °F 5.0 °F 85% 29.87 in 0.5 mi NNE 16.1 mph - 0.20 in Snow Snow
3:35 PM 8.6 °F -10.0 °F 5.0 °F 85% 29.88 in 0.2 mi NE 18.4 mph - 0.49 in Snow Heavy Snow
3:55 PM 8.6 °F -10.0 °F 5.0 °F 85% 29.90 in 0.5 mi NNE 18.4 mph - 0.68 in Snow Snow
4:15 PM 8.6 °F -10.0 °F 5.0 °F 85% 29.91 in 0.5 mi NNE 18.4 mph - 0.04 in Snow Snow
4:35 PM 6.8 °F -11.8 °F 5.0 °F 92% 29.93 in 0.8 mi NNE 17.3 mph 21.9 mph 0.11 in Snow Light Snow
4:55 PM 6.8 °F -11.3 °F 3.2 °F 85% 29.95 in 0.8 mi NNE 16.1 mph 23.0 mph 0.15 in Snow Light Snow
5:15 PM 6.8 °F -11.3 °F 3.2 °F 85% 29.97 in 0.5 mi NNE 16.1 mph - 0.05 in Snow Snow
5:35 PM 6.8 °F -11.8 °F 3.2 °F 85% 29.98 in 2.5 mi NNE 17.3 mph - 0.10 in Snow Light Snow
5:55 PM 6.8 °F -12.4 °F 1.4 °F 79% 30.00 in 8.0 mi NNE 18.4 mph 23.0 mph 0.10 in Rain Light Freezing Rain
6:15 PM 6.8 °F -10.7 °F 1.4 °F 79% 30.02 in 10.0 mi NNE 15.0 mph 23.0 mph N/A   Scattered Clouds
6:35 PM 6.8 °F -10.7 °F 1.4 °F 79% 30.04 in 10.0 mi North 15.0 mph - N/A   Scattered Clouds
6:55 PM 5.0 °F -13.0 °F 1.4 °F 85% 30.06 in 10.0 mi North 15.0 mph - N/A   Scattered Clouds
7:15 PM 5.0 °F -13.6 °F 1.4 °F 85% 30.07 in 10.0 mi North 16.1 mph - N/A   Mostly Cloudy
7:35 PM 5.0 °F -13.6 °F -0.4 °F 78% 30.07 in 10.0 mi North 16.1 mph - N/A   Partly Cloudy
7:55 PM 5.0 °F -13.0 °F -0.4 °F 78% 30.09 in 10.0 mi NNE 15.0 mph - N/A   Clear
8:15 PM 5.0 °F -13.6 °F -0.4 °F 78% 30.10 in 10.0 mi North 16.1 mph - N/A   Partly Cloudy
8:35 PM 3.2 °F -14.6 °F -0.4 °F 85% 30.12 in 10.0 mi North 13.8 mph - N/A   Clear
8:55 PM 3.2 °F -16.5 °F -0.4 °F 85% 30.13 in 10.0 mi North 17.3 mph - N/A   Clear
9:15 PM 3.2 °F -13.9 °F -2.2 °F 78% 30.15 in 10.0 mi North 12.7 mph - N/A   Clear
9:35 PM 1.4 °F -16.1 °F -2.2 °F 85% 30.15 in 10.0 mi North 12.7 mph - N/A   Clear
9:55 PM 1.4 °F -16.1 °F -2.2 °F 85% 30.16 in 10.0 mi North 12.7 mph - N/A   Clear
10:15 PM 1.4 °F -16.1 °F -2.2 °F 85% 30.18 in 10.0 mi North 12.7 mph - N/A   Clear
10:35 PM 1.4 °F -13.5 °F -2.2 °F 85% 30.20 in 10.0 mi North 9.2 mph - N/A   Clear
10:55 PM 1.4 °F -15.3 °F -2.2 °F 85% 30.20 in 10.0 mi North 11.5 mph - N/A   Clear
11:15 PM 1.4 °F -8.3 °F -4.0 °F 78% 30.22 in 10.0 mi NW 4.6 mph - N/A   Clear
11:35 PM -0.4 °F -16.7 °F -4.0 °F 85% 30.22 in 10.0 mi North 10.4 mph - N/A   Clear
11:55 PM -0.4 °F -16.7 °F -4.0 °F 85% 30.23 in 10.0 mi NNW 10.4 mph - N/A   Clear